Regional Weather Roundup
Issued by NWS Raleigh/Durham, NC

Home | Current Version | Previous Version | Text Only | Print | Product List | Glossary On
Versions: 1 2 3 4 5 6 7 8 9 10 11 12 13 14 15 16 17 18 19 20 21 22 23 24 25 26 27 28 29 30 31 32 33 34 35 36 37
000
ASUS42 KRAH 220910
RWRRAH
NORTH CAROLINA WEATHER ROUNDUP
NATIONAL WEATHER SERVICE RALEIGH NC
500 AM EDT WED OCT 22 2014

NOTE: "FAIR" INDICATES FEW OR NO CLOUDS BELOW 12,000 FEET WITH NO
SIGNIFICANT WEATHER AND/OR OBSTRUCTIONS TO VISIBILITY.

NCZ001-053-055-056-065-067-221000-
WESTERN NORTH CAROLINA

CITY           SKY/WX    TMP DP  RH WIND       PRES   REMARKS
ASHEVILLE      CLEAR     45  35  68 N14       30.06R
JEFFERSON      PTCLDY    40  33  75 NW17G30   29.98F WCI  32
MORGANTON      CLEAR     35  34  99 CALM      30.06R
HICKORY        CLEAR     46  36  68 W3        30.00S
RUTHERFORDTON  CLEAR     47  36  63 N7        30.02S
MOUNT AIRY     CLOUDY    51  40  65 N8        30.01S
BOONE          MOCLDY    41  34  76 NW15G23   30.01R
$$

NCZ021-022-025-041-071-084-088-221000-
CENTRAL NORTH CAROLINA

CITY           SKY/WX    TMP DP  RH WIND       PRES   REMARKS
CHARLOTTE      CLEAR     49  35  58 N12G18    29.99R
GREENSBORO     CLEAR     45  39  79 CALM      29.98R
WINSTON-SALEM  PTCLDY    46  38  73 CALM      30.00R
RALEIGH-DURHAM PTCLDY    51  41  68 VRB5      29.94R
FORT BRAGG     CLEAR     51  40  67 NW8       29.93R
FAYETTEVILLE   CLEAR     53  40  61 NW15      29.92S
BURLINGTON     CLEAR     45  38  76 W7        29.97R
LAURINBURG     CLEAR     49  40  71 NW7       29.95S
$$

NCZ011-015-027-028-043-044-047-080-103-221000-
NORTHEASTERN NORTH CAROLINA

CITY           SKY/WX    TMP DP  RH WIND       PRES   REMARKS
ROCKY MT-WILSO CLOUDY    51  47  86 NW6       29.90S
GREENVILLE     MOCLDY    54  45  71 NW7       29.91R
WASHINGTON     MOCLDY    52  46  79 NW6       29.88R
ELIZABETH CITY LGT RAIN  56  51  84 NW9       29.81S
MANTEO         CLOUDY    59  55  87 NW9       29.80S
CAPE HATTERAS  CLOUDY    61  55  81 NW13G22   29.81R
$$

NCZ078-087-090-091-093-098-101-221000-
SOUTHEASTERN NORTH CAROLINA

CITY           SKY/WX    TMP DP  RH WIND       PRES   REMARKS
LUMBERTON      CLEAR     48  41  76 NW6       29.94R
GOLDSBORO      CLEAR     53  46  78 NW6       29.89R
KINSTON        CLEAR     53  44  70 NW7       29.90R
KENANSVILLE    PTCLDY    53  41  65 NW6       29.91R
NEW BERN       PTCLDY    57  43  59 NW10      29.88S
CHERRY POINT   PTCLDY    56  43  61 NW10      29.87R
BEAUFORT       MOCLDY    58  48  69 NW14      29.86R
JACKSONVILLE   PTCLDY    54  43  66 NW7       29.88R
WILMINGTON     PTCLDY    54  42  64 NW10      29.90R
$$




USA.gov is the U.S. government's official web portal to all federal, state and local government web resources and services.